Regional Weather Roundup
Issued by NWS

Home | Current Version | Previous Version | Graphics & Text | Print | Product List | Glossary On
Versions: 1 2 3 4 5 6 7 8 9 10 11 12 13 14 15 16 17 18 19 20 21 22 23 24 25 26 27 28 29 30 31 32 33 34 35 36 37 38 39 40 41 42 43 44 45 46 47 48 49 50
000
ASUS43 KIND 290159
RWRIN

WEATHER ROUNDUP FOR INDIANA
NATIONAL WEATHER SERVICE INDIANAPOLIS IN
1000 PM EDT FRI AUG 28 2015

NOTE: "FAIR" INDICATES FEW OR NO CLOUDS BELOW 12,000 FEET WITH NO
SIGNIFICANT WEATHER AND/OR OBSTRUCTIONS TO VISIBILITY.

* - STATION DOES NOT REPORT WEATHER SUCH AS PRECIPITATION OR FOG.

+ - STATION NOT QUALITY CONTROLLED BY THE NATIONAL WEATHER SERVICE.
    USE DATA WITH CAUTION...ESPECIALLY DEWPOINT AND RELATIVE
    HUMIDITY OBSERVATIONS.

INZ001>003-010>013-019-020-290300-
NORTHWEST INDIANA

CITY           SKY/WX    TMP DP  RH WIND       PRES   REMARKS
KNOX *+        CLOUDY    64  61  88 SE5       30.10R
MONTICELLO +   MOCLDY    69  60  74 E3        30.08R
RENSSELAER +   MOCLDY    68  63  83 E5        30.09S

$$

LMZ046-743>745-290300-
SOUTHERN LAKE MICHIGAN

STATION/POSITION TIME  TEMP    WIND        PRES    WAVE
                       AIR SEA DIR/SP/G            HT
                 (UTC) (F)     (DEG/KT/KT) (MB)    (FT)
BURNS HARBOR     0100   71      CALM  /  2 1019.0R
MICHIGAN CITY    0100   71      80/  5/  6   N/A
5NW MICH CITY    0100   71 71  100/  4/  6   N/A     0

$$

INZ004-005-014>016-021>024-290300-
NORTH CENTRAL INDIANA

CITY           SKY/WX    TMP DP  RH WIND       PRES   REMARKS
GOSHEN         CLOUDY    69  62  78 SE3       30.12R
SOUTH BEND     CLOUDY    70  61  73 S7        30.11R
WARSAW +       CLOUDY    68  61  77 CALM      30.13R

$$

INZ006>009-017-018-025>027-290300-
NORTHEAST INDIANA

CITY           SKY/WX    TMP DP  RH WIND       PRES   REMARKS
ANGOLA *+      CLEAR     63  57  82 SE3       30.13R
AUBURN +       PTCLDY    64  59  82 E3        30.13S
FORT WAYNE     MOCLDY    67  59  75 SE6       30.13R

$$

INZ028-029-035-036-043>045-051>053-290300-
WEST CENTRAL INDIANA

CITY           SKY/WX    TMP DP  RH WIND       PRES   REMARKS
CRAWFORDSVL +  MOCLDY    62  58  87 SE3       30.09R
GREENCASTLE +  PTCLDY    63  55  77 CALM      30.10R
LAFAYETTE      MOCLDY    68  59  73 CALM      30.08R
TERRE HAUTE    PTCLDY    66  59  78 E6        30.08R

$$

INZ030>032-037>040-046>048-054>057-064-065-290300-
CENTRAL INDIANA

CITY           SKY/WX    TMP DP  RH WIND       PRES   REMARKS
FRANKFORT +    MOCLDY    64  60  86 E7        30.12R
GREENWOOD *+   MOCLDY    68  55  64 CALM      30.11R
INDIANAPOLIS   MOCLDY    70  57  63 E7        30.08R
-EAGLE CREEK   MOCLDY    70  56  61 SE5       30.10R
KOKOMO *+      MOCLDY    64  57  77 SE6       30.12R
MT COMFORT *+  MOCLDY    63  59  88 E3        30.12R
SHELBYVILLE    MOCLDY    64  59  83 E5        30.10R
ZIONSVILLE +   MOCLDY    65  57  76 E5        30.12R

$$

INZ033-034-041-042-049-050-058-059-290300-
EAST CENTRAL INDIANA

CITY           SKY/WX    TMP DP  RH WIND       PRES   REMARKS
MUNCIE         MOCLDY    62  58  86 CALM      30.12R

$$

INZ060-061-067>069-081>083-085>088-290300-
SOUTHWEST INDIANA

CITY           SKY/WX    TMP DP  RH WIND       PRES   REMARKS
EVANSVILLE     CLEAR     72  64  76 CALM      30.07R
HUNTINGBURG *+ PTCLDY    70  63  78 E5        30.08R

$$

INZ062-063-066-070>080-084-089>092-290300-
SOUTH CENTRAL AND SOUTHEAST INDIANA

CITY           SKY/WX    TMP DP  RH WIND       PRES   REMARKS
BLOOMINGTON    MOCLDY    63  60  90 CALM      30.10R
MADISON *+     CLEAR     63  61  94 CALM      30.13R
SEYMOUR +      PTCLDY    64  61  88 CALM      30.10R

$$



USA.gov is the U.S. government's official web portal to all federal, state and local government web resources and services.